• In United Kingdom
  • List of Countries
  • For 7 days
  • Water Temperature
  • Satellite Maps
  • Weather Map
  • Weather Widgets
  • user-avatar
    Login

    Hourly Weather Ciecholewy

    Today, 23 April, Monday

    Time Temperature Precipitation Wind Pressure Humidity
    00:00 +7°C° 0 mm 2 mps 753 mmHg 70%
    01:00 +6°C° 0 mm 2 mps 753 mmHg 70%
    02:00 +6°C° 0 mm 2 mps 753 mmHg 71%
    03:00 +5°C° 0 mm 3 mps 752 mmHg 71%
    04:00 +5°C° 0 mm 3 mps 752 mmHg 72%
    05:00 +8°C° 0 mm 3 mps 752 mmHg 70%
    06:00 +8°C° 0 mm 4 mps 751 mmHg 69%
    07:00 +10°C° 0 mm 4 mps 751 mmHg 67%
    08:00 +12°C° 0 mm 5 mps 750 mmHg 65%
    09:00 +14°C° 0 mm 5 mps 750 mmHg 62%
    10:00 +15°C° 0 mm 5 mps 750 mmHg 59%
    11:00 +16°C° 0.2 mm 5 mps 749 mmHg 60%
    12:00 +17°C° 0.2 mm 5 mps 749 mmHg 60%
    13:00 +19°C° 0.2 mm 5 mps 748 mmHg 60%
    14:00 +19°C° 0.4 mm 5 mps 748 mmHg 63%
    15:00 +19°C° 0.4 mm 4 mps 748 mmHg 66%
    16:00 +19°C° 0.4 mm 4 mps 748 mmHg 69%
    17:00 +17°C° 0.3 mm 4 mps 748 mmHg 74%
    18:00 +14°C° 0.3 mm 4 mps 748 mmHg 78%
    19:00 +13°C° 0.3 mm 4 mps 748 mmHg 82%
    20:00 +11°C° 0 mm 4 mps 749 mmHg 82%
    21:00 +10°C° 0 mm 4 mps 749 mmHg 82%
    22:00 +8°C° 0 mm 4 mps 749 mmHg 82%
    23:00 +8°C° 0 mm 4 mps 750 mmHg 83%

    Tomorrow, 24 April, Tuesday

    Time Temperature Precipitation Wind Pressure Humidity
    00:00 +7°C° 0 mm 4 mps 750 mmHg 84%
    01:00 +6°C° 0 mm 4 mps 750 mmHg 85%
    02:00 +6°C° 0 mm 4 mps 750 mmHg 87%
    03:00 +6°C° 0 mm 4 mps 750 mmHg 89%
    04:00 +5°C° 0 mm 4 mps 751 mmHg 91%
    05:00 +6°C° 0 mm 4 mps 751 mmHg 87%
    06:00 +7°C° 0 mm 5 mps 751 mmHg 83%
    07:00 +8°C° 0 mm 5 mps 751 mmHg 79%
    08:00 +9°C° 0 mm 5 mps 751 mmHg 73%
    09:00 +10°C° 0 mm 5 mps 751 mmHg 66%
    10:00 +13°C° 0 mm 5 mps 752 mmHg 59%
    11:00 +14°C° 0 mm 5 mps 751 mmHg 57%
    12:00 +15°C° 0 mm 5 mps 751 mmHg 54%
    13:00 +15°C° 0 mm 5 mps 750 mmHg 51%
    14:00 +15°C° 0.1 mm 5 mps 750 mmHg 55%
    15:00 +15°C° 0.1 mm 5 mps 750 mmHg 59%
    16:00 +15°C° 0.1 mm 4 mps 749 mmHg 62%
    17:00 +14°C° 0.6 mm 4 mps 749 mmHg 70%
    18:00 +13°C° 0.6 mm 4 mps 749 mmHg 78%
    19:00 +12°C° 0.6 mm 4 mps 749 mmHg 86%
    20:00 +11°C° 0.3 mm 4 mps 749 mmHg 87%
    21:00 +11°C° 0.3 mm 4 mps 749 mmHg 88%
    22:00 +10°C° 0.3 mm 5 mps 749 mmHg 88%
    23:00 +10°C° 0 mm 4 mps 749 mmHg 88%

    Day after tomorrow, 25 April, Wednesday

    Time Temperature Precipitation Wind Pressure Humidity
    00:00 +8°C° 0 mm 4 mps 749 mmHg 88%
    01:00 +7°C° 0 mm 4 mps 749 mmHg 88%
    02:00 +7°C° 0 mm 4 mps 749 mmHg 89%
    03:00 +8°C° 0 mm 3 mps 749 mmHg 90%
    04:00 +7°C° 0 mm 3 mps 749 mmHg 91%
    05:00 +8°C° 0 mm 3 mps 749 mmHg 88%
    06:00 +8°C° 0 mm 3 mps 749 mmHg 85%
    07:00 +9°C° 0 mm 3 mps 749 mmHg 83%
    08:00 +9°C° 0.4 mm 3 mps 749 mmHg 84%
    09:00 +9°C° 0.4 mm 2 mps 748 mmHg 85%
    10:00 +9°C° 0.4 mm 2 mps 748 mmHg 86%
    11:00 +9°C° 1.1 mm 2 mps 748 mmHg 87%
    12:00 +9°C° 1.1 mm 2 mps 748 mmHg 89%
    13:00 +10°C° 1.1 mm 2 mps 747 mmHg 91%
    14:00 +10°C° 1.2 mm 3 mps 747 mmHg 88%
    15:00 +10°C° 1.2 mm 3 mps 747 mmHg 85%
    16:00 +10°C° 1.2 mm 3 mps 747 mmHg 82%
    17:00 +9°C° 0 mm 3 mps 747 mmHg 84%
    18:00 +8°C° 0 mm 3 mps 748 mmHg 85%
    19:00 +7°C° 0 mm 2 mps 748 mmHg 87%
    20:00 +7°C° 0 mm 3 mps 748 mmHg 88%
    21:00 +5°C° 0 mm 3 mps 749 mmHg 88%
    22:00 +5°C° 0 mm 3 mps 749 mmHg 89%
    23:00 +4°C° 0 mm 4 mps 749 mmHg 88%

    26 April, Thursday

    Time Temperature Precipitation Wind Pressure Humidity
    00:00 +4°C° 0 mm 4 mps 749 mmHg 88%
    01:00 +4°C° 0 mm 4 mps 749 mmHg 87%
    02:00 +4°C° 0.1 mm 4 mps 750 mmHg 89%
    03:00 +5°C° 0.1 mm 4 mps 750 mmHg 90%
    04:00 +5°C° 0.1 mm 4 mps 750 mmHg 92%
    05:00 +5°C° 0.5 mm 4 mps 750 mmHg 91%
    06:00 +6°C° 0.5 mm 4 mps 750 mmHg 90%
    07:00 +7°C° 0.5 mm 4 mps 751 mmHg 90%
    08:00 +8°C° 0.1 mm 4 mps 751 mmHg 84%
    09:00 +8°C° 0.1 mm 4 mps 751 mmHg 78%
    10:00 +9°C° 0.1 mm 5 mps 751 mmHg 71%
    11:00 +11°C° 0 mm 4 mps 751 mmHg 65%
    12:00 +13°C° 0 mm 4 mps 751 mmHg 59%
    13:00 +14°C° 0 mm 4 mps 751 mmHg 52%
    14:00 +13°C° 0.2 mm 4 mps 751 mmHg 55%
    15:00 +13°C° 0.2 mm 4 mps 750 mmHg 58%
    16:00 +13°C° 0.2 mm 4 mps 750 mmHg 61%
    17:00 +12°C° 0.3 mm 3 mps 750 mmHg 68%
    18:00 +11°C° 0.3 mm 3 mps 750 mmHg 74%
    19:00 +10°C° 0.3 mm 2 mps 749 mmHg 81%
    20:00 +9°C° 0.6 mm 2 mps 749 mmHg 84%
    21:00 +9°C° 0.6 mm 3 mps 749 mmHg 88%
    22:00 +8°C° 0.6 mm 3 mps 749 mmHg 91%
    23:00 +7°C° 0.2 mm 4 mps 749 mmHg 91%

    27 April, Friday

    Time Temperature Precipitation Wind Pressure Humidity
    00:00 +7°C° 0.2 mm 4 mps 749 mmHg 91%
    01:00 +7°C° 0.2 mm 5 mps 749 mmHg 91%
    02:00 +6°C° 0 mm 5 mps 749 mmHg 90%
    03:00 +6°C° 0 mm 5 mps 749 mmHg 90%
    04:00 +5°C° 0 mm 5 mps 749 mmHg 90%
    05:00 +6°C° 0 mm 5 mps 750 mmHg 87%
    06:00 +6°C° 0 mm 5 mps 750 mmHg 84%
    07:00 +6°C° 0 mm 5 mps 751 mmHg 81%
    08:00 +6°C° 0 mm 5 mps 751 mmHg 78%
    09:00 +7°C° 0 mm 5 mps 752 mmHg 74%
    10:00 +7°C° 0 mm 5 mps 752 mmHg 71%
    11:00 +9°C° 0.1 mm 5 mps 752 mmHg 65%
    12:00 +10°C° 0.1 mm 5 mps 752 mmHg 60%
    13:00 +12°C° 0.1 mm 5 mps 752 mmHg 54%
    14:00 +12°C° 0.1 mm 5 mps 752 mmHg 53%
    15:00 +12°C° 0.1 mm 5 mps 752 mmHg 52%
    16:00 +13°C° 0.1 mm 4 mps 752 mmHg 51%
    17:00 +11°C° 0.1 mm 4 mps 752 mmHg 57%
    18:00 +10°C° 0.1 mm 3 mps 752 mmHg 63%
    19:00 +9°C° 0.1 mm 2 mps 753 mmHg 68%
    20:00 +8°C° 0 mm 2 mps 753 mmHg 71%
    21:00 +8°C° 0 mm 2 mps 753 mmHg 73%
    22:00 +7°C° 0 mm 2 mps 753 mmHg 76%
    23:00 +7°C° 0 mm 2 mps 753 mmHg 77%

    28 April, Saturday

    Time Temperature Precipitation Wind Pressure Humidity
    00:00 +7°C° 0 mm 2 mps 753 mmHg 79%
    01:00 +6°C° 0 mm 2 mps 754 mmHg 80%
    02:00 +6°C° 0 mm 2 mps 754 mmHg 83%
    03:00 +5°C° 0 mm 2 mps 754 mmHg 85%
    04:00 +5°C° 0 mm 2 mps 754 mmHg 88%
    05:00 +6°C° 0 mm 2 mps 754 mmHg 83%
    06:00 +7°C° 0 mm 3 mps 755 mmHg 78%
    07:00 +8°C° 0 mm 3 mps 755 mmHg 73%
    08:00 +10°C° 0 mm 3 mps 755 mmHg 65%
    09:00 +12°C° 0 mm 2 mps 756 mmHg 57%
    10:00 +14°C° 0 mm 2 mps 756 mmHg 49%
    11:00 +15°C° 0 mm 2 mps 756 mmHg 46%
    12:00 +15°C° 0 mm 2 mps 756 mmHg 42%
    13:00 +16°C° 0 mm 2 mps 756 mmHg 39%
    14:00 +16°C° 0 mm 2 mps 755 mmHg 40%
    15:00 +16°C° 0 mm 2 mps 755 mmHg 42%
    16:00 +16°C° 0 mm 2 mps 755 mmHg 43%
    17:00 +14°C° 0 mm 2 mps 755 mmHg 52%
    18:00 +11°C° 0 mm 3 mps 755 mmHg 62%
    19:00 +8°C° 0 mm 4 mps 755 mmHg 71%
    20:00 +7°C° 0 mm 4 mps 755 mmHg 73%
    21:00 +7°C° 0 mm 4 mps 755 mmHg 74%
    22:00 +6°C° 0 mm 4 mps 755 mmHg 76%
    23:00 +6°C° 0 mm 4 mps 755 mmHg 77%
    Show more